Location: Auckland
(36.8670°S, 174.7670°E)
Time: 18:41:23
(UTC+12:00)

Tiros 1 despin weight - Pass Details

Date: 25 July 2019
Orbit: 594 x 642 km, 48.2° (Epoch: 24 August)

Event Time Altitude Azimuth Distance (km) Brightness Sun altitude
Rises 04:47:19 0° 235° (SW) 2,871 - -31.5°
Reaches altitude 10° 04:49:38 10° 233° (SW) 1,969 - -31.0°
Maximum altitude 04:54:09 77° 147° (SSE) 635 - -30.1°
Exits shadow 04:55:47 39° 67° (ENE) 924 ? -29.8°
Drops below altitude 10° 04:58:43 10° 59° (ENE) 1,981 ? -29.2°
Sets 05:01:02 0° 58° (ENE) 2,890 ? -28.7°
